HIMAWARI-9

Last updated on Mon Nov 03 2025 00:02:24 GMT+0000 (Coordinated Universal Time)

1 41836U 16064A 25306.35192100 .00000000 00000+0 00000+0 0 9994 2 41836 0.0205 96.4616 0001374 130.6956 82.1752 1.00268206 32935
UTC large
Height (km)
Speed (km/s)
/
Latitude / Longitude
Inclination (degrees)
Orbital Period (minutes)
Azimuth
Elevation
Range (km)
Doppler Factor

Next 0 passes for location: London (51.5072 / 0.1276)

Sorry there are no passes over London.